QPF
0.00 0.04 0.09 0.03 0.00 0.00 0.01 0.01 0.03 0.01 0.00 0.01 0.02 0.01 0.02 0.00 0.00 0.00 0.03 0.05 0.04 0.01 0.00 0.00 0.00 0.00 0.00 0.01 0.02 0.04 0.00 0.00 0.00 0.00 0.00 0.00 0.00 0.01 0.01 0.00 0.00 0.00 0.00
0.00 0.01 0.04 0.03 0.00 0.00 0.01 0.02 0.00 0.00 0.00 0.00 0.01 0.00 0.00 0.02 0.05 0.01 0.00 0.00 0.00 0.00 0.00 0.00 0.00 0.00 0.00 0.01 0.08 0.11 0.02 0.00 0.00 0.00 0.00 0.00 0.00 0.01 0.02 0.03 0.00 0.00 0.00
0.00 0.00 0.01 0.03 0.02 0.00 0.01 0.00 0.00 0.00 0.00 0.00 0.02 0.01 0.01 0.03 0.04 0.02 0.00 0.00 0.00 0.00 0.00 0.00 0.00 0.02 0.05 0.09 0.09 0.07 0.02 0.00 0.02 0.03 0.02 0.00 0.00 0.00 0.01 0.06 0.01 0.00 0.00
0.00 0.00 0.00 0.00 0.00 0.00 0.00 0.01 0.00 0.00 0.00 0.00 0.00 0.00 0.00 0.01 0.00 0.00 0.00 0.00 0.00 0.00 0.00 0.00 0.00 0.00 0.01 0.02 0.02 0.02 0.01 0.04 0.10 0.09 0.03 0.00 0.00 0.00 0.00 0.01 0.01 0.00 0.00
0.00 0.00 0.00 0.00 0.00 0.00 0.00 0.00 0.00 0.00 0.00 0.00 0.00 0.00 0.00 0.00 0.00 0.00 0.00 0.00 0.00 0.00 0.00 0.00 0.00 0.00 0.02 0.08 0.09 0.09 0.05 0.01 0.03 0.05 0.03 0.00 0.00 0.00 0.00 0.00 0.00 0.00 0.00
0.00 0.00 0.00 0.00 0.00 0.00 0.00 0.00 0.00 0.00 0.00 0.00 0.00 0.00 0.00 0.00 0.00 0.00 0.00 0.00 0.00 0.00 0.00 0.00 0.03 0.06 0.05 0.06 0.05 0.05 0.07 0.12 0.10 0.00 0.00 0.00 0.00 0.00 0.00 0.00 0.00 0.00 0.00
0.00 0.00 0.00 0.00 0.00 0.00 0.00 0.00 0.00 0.00 0.00 0.00 0.00 0.00 0.00 0.00 0.00 0.00 0.00 0.00 0.01 0.00 0.00 0.00 0.02 0.01 0.00 0.02 0.02 0.01 0.03 0.08 0.10 0.00 0.00 0.00 0.00 0.00 0.00 0.00 0.00 0.00 0.00
0.00 0.00 0.00 0.00 0.00 0.00 0.00 0.00 0.00 0.00 0.00 0.00 0.00 0.00 0.00 0.00 0.00 0.00 0.01 0.03 0.01 0.00 0.00 0.00 0.00 0.00 0.00 0.00 0.01 0.01 0.00 0.01 0.00 0.00 0.00 0.00 0.00 0.00 0.00 0.02 0.00 0.00 0.00
0.00 0.00 0.00 0.00 0.00 0.00 0.00 0.00 0.00 0.00 0.00 0.00 0.00 0.01 0.00 0.00 0.00 0.00 0.02 0.02 0.00 0.01 0.00 0.00 0.00 0.00 0.00 0.00 0.00 0.00 0.00 0.00 0.00 0.00 0.00 0.00 0.00 0.00 0.00 0.00 0.00 0.00 0.00
0.00 0.00 0.00 0.00 0.00 0.00 0.00 0.00 0.00 0.00 0.00 0.00 0.00 0.01 0.00 0.00 0.00 0.00 0.00 0.00 0.00 0.00 0.00 0.00 0.00 0.00 0.00 0.00 0.00 0.00 0.00 0.00 0.00 0.00 0.00 0.00 0.00 0.00 0.00 0.01 0.01 0.01 0.00
0.00 0.00 0.00 0.00 0.00 0.00 0.00 0.00 0.00 0.00 0.00 0.00 0.00 0.02 0.00 0.00 0.00 0.00 0.00 0.00 0.00 0.00 0.00 0.00 0.00 0.00 0.00 0.00 0.00 0.00 0.00 0.00 0.00 0.00 0.00 0.00 0.00 0.00 0.00 0.04 0.07 0.05 0.01
0.00 0.00 0.00 0.00 0.00 0.00 0.00 0.00 0.00 0.00 0.00 0.00 0.00 0.00 0.00 0.00 0.00 0.00 0.00 0.00 0.00 0.00 0.00 0.00 0.00 0.00 0.00 0.00 0.01 0.00 0.00 0.00 0.00 0.00 0.00 0.00 0.00 0.00 0.00 0.06 0.07 0.06 0.04
0.00 0.00 0.00 0.00 0.00 0.00 0.00 0.00 0.00 0.00 0.00 0.02 0.01 0.00 0.00 0.00 0.01 0.00 0.00 0.00 0.02 0.01 0.00 0.00 0.00 0.00 0.00 0.00 0.04 0.01 0.00 0.00 0.00 0.00 0.01 0.01 0.00 0.00 0.00 0.10 0.21 0.21 0.20
0.00 0.00 0.00 0.00 0.00 0.00 0.00 0.00 0.00 0.00 0.00 0.02 0.04 0.00 0.00 0.00 0.00 0.01 0.01 0.03 0.04 0.01 0.00 0.00 0.00 0.00 0.00 0.00 0.00 0.00 0.00 0.00 0.01 0.00 0.05 0.01 0.00 0.01 0.10 0.18 0.20 0.20 0.18
0.00 0.00 0.00 0.00 0.00 0.00 0.00 0.00 0.00 0.00 0.00 0.00 0.00 0.01 0.01 0.00 0.02 0.03 0.08 0.11 0.08 0.03 0.01 0.00 0.00 0.00 0.00 0.00 0.00 0.00 0.00 0.00 0.00 0.01 0.02 0.02 0.00 0.11 0.06 0.01 0.05 0.13 0.16
0.00 0.00 0.00 0.00 0.00 0.00 0.00 0.00 0.00 0.00 0.00 0.00 0.00 0.00 0.03 0.04 0.01 0.03 0.07 0.05 0.00 0.02 0.00 0.00 0.00 0.00 0.00 0.00 0.01 0.00 0.01 0.00 0.00 0.00 0.01 0.03 0.01 0.04 0.00 0.00 0.06 0.08 0.10
0.00 0.00 0.00 0.00 0.00 0.00 0.00 0.00 0.00 0.00 0.00 0.00 0.00 0.00 0.01 0.04 0.01 0.02 0.06 0.06 0.04 0.00 0.00 0.02 0.01 0.00 0.02 0.04 0.04 0.00 0.03 0.02 0.01 0.00 0.01 0.02 0.06 0.03 0.02 0.06 0.17 0.18 0.15
0.00 0.00 0.00 0.00 0.00 0.00 0.00 0.00 0.00 0.00 0.00 0.00 0.00 0.00 0.01 0.03 0.02 0.02 0.01 0.00 0.01 0.00 0.00 0.00 0.01 0.06 0.05 0.05 0.03 0.00 0.00 0.02 0.02 0.02 0.02 0.02 0.03 0.03 0.03 0.13 0.22 0.18 0.16
0.00 0.00 0.00 0.00 0.00 0.00 0.00 0.00 0.00 0.00 0.00 0.00 0.00 0.00 0.00 0.00 0.01 0.02 0.00 0.00 0.01 0.01 0.07 0.05 0.05 0.03 0.05 0.02 0.00 0.00 0.00 0.01 0.01 0.01 0.00 0.00 0.01 0.05 0.06 0.14 0.17 0.07 0.14
0.00 0.00 0.00 0.00 0.00 0.00 0.00 0.00 0.00 0.00 0.00 0.00 0.00 0.00 0.00 0.00 0.00 0.00 0.00 0.01 0.01 0.00 0.02 0.10 0.10 0.05 0.02 0.00 0.00 0.00 0.00 0.00 0.00 0.00 0.00 0.00 0.00 0.01 0.02 0.05 0.08 0.04 0.08
0.00 0.00 0.00 0.00 0.00 0.00 0.00 0.00 0.00 0.00 0.00 0.00 0.00 0.00 0.00 0.00 0.00 0.00 0.00 0.00 0.00 0.00 0.01 0.02 0.05 0.06 0.00 0.00 0.00 0.00 0.00 0.00 0.00 0.00 0.00 0.00 0.00 0.00 0.01 0.01 0.02 0.02 0.02
0.00 0.00 0.00 0.00 0.00 0.00 0.00 0.00 0.00 0.00 0.00 0.00 0.00 0.00 0.00 0.00 0.00 0.00 0.00 0.00 0.00 0.00 0.00 0.01 0.01 0.00 0.00 0.00 0.00 0.00 0.00 0.00 0.00 0.00 0.00 0.00 0.00 0.00 0.00 0.00 0.00 0.00 0.00
0.00 0.00 0.00 0.00 0.00 0.00 0.00 0.00 0.00 0.00 0.00 0.00 0.00 0.00 0.00 0.00 0.00 0.00 0.00 0.00 0.00 0.00 0.00 0.00 0.00 0.00 0.00 0.00 0.00 0.00 0.00 0.01 0.01 0.02 0.00 0.00 0.00 0.00 0.00 0.00 0.00 0.00 0.00
0.00 0.00 0.00 0.00 0.00 0.00 0.00 0.00 0.00 0.00 0.00 0.00 0.00 0.00 0.00 0.00 0.00 0.00 0.00 0.00 0.00 0.00 0.00 0.00 0.00 0.00 0.00 0.00 0.00 0.00 0.00 0.00 0.00 0.02 0.00 0.00 0.00 0.01 0.00 0.00 0.00 0.00 0.00
0.00 0.00 0.00 0.00 0.00 0.00 0.00 0.00 0.00 0.00 0.00 0.00 0.00 0.00 0.00 0.00 0.00 0.00 0.00 0.00 0.00 0.00 0.00 0.00 0.00 0.00 0.00 0.00 0.00 0.00 0.00 0.00 0.00 0.00 0.00 0.00 0.00 0.00 0.00 0.00 0.00 0.00 0.00
0.00 0.00 0.00 0.00 0.00 0.00 0.00 0.00 0.00 0.00 0.00 0.00 0.00 0.00 0.00 0.00 0.00 0.00 0.00 0.00 0.00 0.00 0.00 0.00 0.00 0.00 0.00 0.00 0.00 0.00 0.00 0.00 0.00 0.00 0.00 0.00 0.00 0.00 0.00 0.00 0.00 0.00 0.00
MSLP
1013.11 1012.95 1012.73 1013.01 1013.23 1013.40 1013.53 1013.58 1013.61 1013.68 1013.80 1013.83 1013.92 1013.98 1013.91 1013.95 1014.04 1014.08 1014.09 1014.08 1014.06 1014.20 1014.31 1014.30 1014.30 1014.20 1013.98 1014.07 1014.22 1014.32 1014.34 1014.40 1014.39 1014.29 1014.32 1014.40 1014.63 1014.80 1014.82 1015.02 1015.02 1015.07 1015.09
1012.85 1012.99 1013.05 1013.14 1013.37 1013.64 1013.79 1013.78 1013.82 1013.88 1014.00 1014.08 1014.14 1014.23 1014.17 1014.17 1014.18 1014.18 1014.25 1014.34 1014.51 1014.61 1014.69 1014.61 1014.46 1014.24 1014.28 1014.30 1014.46 1014.52 1014.59 1014.67 1014.55 1014.43 1014.43 1014.50 1014.73 1014.94 1014.95 1015.04 1015.16 1015.18 1015.04
1013.07 1012.99 1013.19 1013.41 1013.63 1013.84 1013.93 1013.99 1014.04 1014.16 1014.20 1014.30 1014.25 1014.34 1014.44 1014.38 1014.48 1014.54 1014.75 1014.83 1014.83 1014.79 1014.81 1014.80 1014.67 1014.50 1014.67 1014.64 1014.63 1014.85 1014.78 1014.72 1014.57 1014.48 1014.39 1014.58 1014.70 1014.74 1014.90 1014.98 1015.07 1015.14 1015.12
1012.96 1013.16 1013.53 1013.63 1013.78 1013.95 1014.12 1014.28 1014.42 1014.40 1014.39 1014.49 1014.56 1014.61 1014.54 1014.48 1014.55 1014.70 1014.80 1014.78 1014.75 1014.77 1014.80 1014.83 1014.80 1014.74 1014.64 1014.64 1014.69 1014.72 1014.74 1014.69 1014.58 1014.64 1014.62 1014.48 1014.48 1014.56 1014.72 1014.84 1015.01 1015.07 1015.25
1013.33 1013.39 1013.67 1013.88 1013.99 1014.22 1014.35 1014.47 1014.57 1014.71 1014.65 1014.74 1014.79 1014.71 1014.59 1014.64 1014.68 1014.85 1014.94 1014.93 1014.88 1014.81 1014.76 1014.63 1014.58 1014.44 1014.31 1014.32 1014.21 1014.33 1014.32 1014.31 1014.33 1014.25 1014.31 1014.34 1014.46 1014.29 1014.48 1014.62 1014.83 1015.09 1015.35
1013.60 1013.65 1013.76 1013.94 1014.20 1014.40 1014.49 1014.64 1014.72 1014.74 1014.68 1014.76 1014.87 1014.88 1014.91 1015.00 1015.04 1015.10 1015.14 1014.95 1014.68 1014.43 1014.45 1014.32 1014.12 1013.91 1014.08 1013.88 1013.78 1013.68 1013.72 1013.80 1013.89 1013.95 1014.01 1014.07 1014.22 1014.24 1014.22 1014.50 1014.72 1014.97 1015.12
1013.78 1013.90 1014.02 1014.17 1014.38 1014.54 1014.69 1014.79 1014.66 1014.75 1014.83 1014.85 1014.93 1015.12 1015.15 1015.05 1014.96 1014.90 1014.86 1014.63 1014.12 1013.97 1014.25 1014.26 1013.96 1013.89 1013.94 1013.82 1013.48 1013.10 1013.13 1013.18 1013.51 1013.84 1014.07 1014.15 1013.97 1013.74 1013.80 1014.05 1014.31 1014.56 1014.74
1013.95 1014.09 1014.28 1014.46 1014.56 1014.70 1014.90 1014.79 1014.90 1014.98 1014.97 1014.99 1015.20 1014.91 1014.81 1014.96 1015.04 1014.82 1014.45 1014.31 1014.21 1014.24 1014.42 1014.30 1013.97 1013.86 1013.80 1013.46 1013.05 1012.65 1012.72 1012.81 1012.98 1013.40 1013.74 1013.90 1013.87 1013.50 1013.36 1013.56 1013.86 1014.08 1014.23
1014.03 1014.34 1014.58 1014.75 1014.71 1014.80 1014.92 1014.92 1015.08 1015.00 1014.99 1015.40 1015.23 1015.00 1014.83 1014.78 1014.82 1014.70 1014.46 1014.12 1013.78 1014.28 1013.99 1013.99 1013.72 1013.81 1013.43 1012.98 1012.54 1012.78 1012.80 1012.70 1013.04 1013.30 1013.50 1013.50 1013.64 1013.60 1013.36 1013.43 1013.58 1013.75 1013.98
1014.36 1014.51 1014.78 1014.93 1015.00 1015.07 1015.09 1015.04 1015.24 1015.12 1015.37 1015.36 1015.14 1014.84 1014.89 1015.30 1015.06 1014.90 1014.58 1014.32 1014.09 1014.27 1014.31 1014.26 1014.10 1013.86 1013.44 1012.63 1012.65 1012.81 1013.01 1012.96 1013.19 1013.37 1013.54 1013.70 1013.96 1013.99 1013.76 1013.70 1013.88 1014.11 1014.18
1014.66 1014.90 1014.95 1015.11 1015.16 1015.31 1015.32 1015.32 1015.25 1015.20 1015.58 1015.32 1015.15 1014.84 1015.32 1015.52 1015.01 1014.86 1014.50 1014.54 1014.38 1014.63 1014.47 1014.58 1014.47 1013.93 1013.54 1013.15 1012.63 1012.43 1012.51 1012.70 1012.90 1013.14 1013.39 1013.52 1013.82 1013.86 1013.94 1014.15 1014.22 1014.13 1014.29
1014.74 1014.99 1015.14 1015.26 1015.32 1015.43 1015.31 1015.50 1015.47 1015.58 1015.72 1015.57 1015.18 1014.96 1015.38 1015.29 1015.21 1015.08 1015.00 1014.83 1014.63 1014.59 1014.65 1014.60 1014.44 1014.17 1013.96 1013.76 1013.30 1012.84 1012.94 1012.66 1012.65 1012.81 1012.93 1013.33 1013.53 1013.10 1013.28 1013.38 1013.80 1014.11 1014.07
1014.52 1014.88 1015.06 1015.30 1015.36 1015.51 1015.44 1015.60 1015.74 1015.81 1015.98 1015.92 1015.46 1015.02 1015.10 1015.44 1014.99 1015.20 1015.33 1015.35 1015.10 1015.04 1015.06 1014.83 1014.69 1014.39 1014.47 1014.38 1014.12 1013.65 1012.92 1012.48 1012.62 1012.77 1012.98 1013.05 1013.00 1013.09 1012.92 1013.13 1013.34 1013.64 1013.65
1014.59 1014.82 1014.95 1015.02 1015.19 1015.41 1015.54 1015.53 1015.71 1015.73 1016.03 1016.16 1015.83 1015.48 1015.47 1015.60 1015.35 1015.46 1015.49 1015.70 1015.76 1015.40 1015.37 1014.83 1014.58 1014.56 1014.36 1014.19 1014.07 1013.52 1012.89 1012.51 1012.46 1012.48 1012.83 1012.88 1012.96 1012.94 1012.11 1012.36 1012.68 1013.02 1013.43
1014.43 1014.69 1014.90 1015.12 1015.29 1015.13 1015.36 1015.54 1015.69 1015.70 1015.73 1015.98 1015.91 1015.73 1015.56 1015.56 1015.62 1015.12 1015.44 1016.12 1016.08 1015.76 1015.15 1015.07 1014.95 1014.69 1014.36 1014.00 1013.79 1013.64 1013.11 1012.60 1012.30 1012.40 1012.64 1012.42 1012.78 1012.62 1011.46 1012.12 1012.98 1012.92 1012.96
1014.24 1014.47 1014.66 1015.04 1015.14 1015.06 1015.26 1015.28 1015.44 1015.46 1015.51 1015.90 1015.75 1015.71 1015.81 1015.68 1015.53 1015.53 1015.60 1015.64 1015.52 1015.22 1014.98 1015.15 1015.00 1014.93 1014.55 1014.10 1013.74 1013.32 1012.91 1012.65 1012.52 1012.55 1012.58 1012.42 1012.62 1012.34 1011.92 1012.37 1012.29 1012.37 1012.32
1013.78 1014.12 1014.48 1014.76 1014.85 1015.09 1015.18 1015.08 1015.22 1015.17 1015.26 1015.45 1015.82 1015.74 1015.71 1015.73 1015.63 1015.62 1015.85 1015.74 1015.27 1014.86 1014.96 1014.93 1014.78 1014.70 1014.49 1013.85 1013.59 1013.34 1013.12 1012.82 1012.69 1012.61 1012.56 1012.42 1012.11 1011.91 1012.21 1012.41 1012.53 1012.23 1012.39
1013.49 1013.94 1014.32 1014.63 1014.88 1014.89 1015.09 1015.05 1015.01 1015.02 1015.10 1015.15 1015.26 1015.66 1015.66 1015.57 1015.68 1015.79 1015.83 1015.09 1014.84 1014.84 1015.01 1015.12 1015.04 1014.87 1014.50 1014.30 1013.94 1013.28 1012.89 1012.63 1012.66 1012.53 1012.53 1012.49 1012.90 1012.81 1012.91 1012.80 1012.31 1012.04 1012.11
1012.95 1013.65 1014.16 1014.40 1014.65 1014.66 1014.80 1015.01 1015.13 1015.09 1015.13 1014.87 1014.88 1015.03 1014.84 1015.10 1015.09 1015.24 1014.96 1014.65 1014.63 1014.86 1014.93 1015.05 1015.04 1015.04 1014.93 1013.97 1013.38 1013.38 1013.14 1012.99 1013.03 1012.71 1012.67 1012.86 1013.15 1013.30 1013.02 1012.62 1012.11 1012.10 1012.23
1012.80 1013.42 1013.80 1014.14 1014.49 1014.70 1014.72 1014.90 1015.23 1015.43 1015.08 1014.86 1014.74 1014.68 1014.51 1014.57 1014.57 1014.74 1014.84 1014.74 1014.77 1015.29 1015.35 1015.36 1015.52 1015.15 1014.60 1014.03 1013.57 1013.62 1013.59 1013.45 1013.48 1013.43 1013.58 1013.59 1013.59 1013.41 1013.36 1013.03 1012.83 1012.69 1012.45
1012.90 1013.44 1013.63 1014.10 1014.41 1014.73 1015.03 1015.19 1015.37 1015.46 1015.45 1015.16 1014.76 1014.46 1014.42 1014.48 1014.56 1014.63 1014.87 1014.97 1014.96 1015.32 1015.33 1015.47 1015.34 1014.95 1014.48 1014.03 1013.90 1013.64 1013.79 1013.77 1013.73 1013.72 1014.07 1014.08 1014.01 1013.85 1013.74 1013.69 1013.65 1013.53 1013.36
1012.24 1012.90 1013.48 1013.66 1013.99 1014.28 1014.53 1014.93 1015.03 1015.16 1015.16 1015.11 1014.72 1014.42 1014.38 1014.39 1014.54 1014.65 1014.82 1014.98 1015.05 1015.18 1015.12 1014.99 1014.96 1014.88 1014.59 1014.02 1014.11 1014.23 1014.25 1014.27 1013.94 1013.93 1014.06 1014.36 1014.49 1014.16 1014.32 1014.38 1014.35 1014.21 1014.07
1012.13 1012.58 1013.07 1013.38 1013.55 1013.75 1014.06 1014.63 1015.05 1015.10 1015.06 1014.96 1014.83 1014.56 1014.18 1014.25 1014.39 1014.50 1014.44 1014.59 1014.79 1014.97 1014.96 1014.81 1014.69 1014.87 1014.57 1014.05 1014.09 1014.31 1014.46 1014.55 1014.44 1014.66 1014.86 1014.98 1014.96 1015.06 1015.31 1015.13 1015.08 1014.86 1014.66
1011.38 1011.98 1012.43 1013.02 1013.41 1013.56 1013.88 1014.28 1014.79 1015.10 1015.41 1015.25 1015.07 1014.62 1014.31 1014.18 1014.36 1014.45 1014.34 1014.38 1014.66 1014.78 1014.78 1014.59 1014.46 1014.38 1014.44 1014.41 1014.39 1014.29 1014.28 1014.42 1014.82 1015.36 1015.69 1015.74 1015.65 1015.74 1015.68 1015.50 1015.18 1015.19 1015.16
1010.77 1011.43 1011.93 1012.47 1013.12 1013.40 1013.80 1014.04 1014.43 1014.87 1015.02 1014.98 1014.94 1014.74 1014.42 1014.43 1014.28 1014.12 1014.10 1014.06 1014.30 1014.42 1014.36 1014.35 1014.16 1014.15 1014.16 1014.33 1014.46 1014.53 1014.65 1014.84 1015.02 1015.38 1016.17 1016.52 1016.40 1016.28 1016.00 1015.53 1015.56 1015.57 1015.53
1010.07 1010.86 1011.58 1012.16 1012.62 1013.16 1013.52 1013.88 1014.23 1014.54 1014.95 1015.14 1015.14 1015.00 1014.58 1014.46 1014.18 1014.08 1013.88 1013.79 1013.89 1014.14 1014.12 1014.10 1014.10 1014.16 1014.18 1014.34 1014.61 1014.72 1014.85 1015.32 1015.50 1015.69 1016.44 1016.92 1017.14 1017.15 1016.68 1016.40 1016.29 1016.13 1016.13
Thickness
5763 5763 5764 5761 5757 5756 5755 5756 5756 5755 5754 5753 5752 5751 5752 5752 5750 5749 5750 5749 5750 5747 5746 5748 5748 5750 5753 5752 5751 5749 5749 5748 5748 5749 5750 5750 5749 5748 5749 5747 5747 5747 5748
5768 5765 5764 5762 5759 5756 5755 5757 5756 5755 5754 5752 5751 5751 5752 5751 5751 5750 5750 5748 5745 5743 5742 5744 5747 5751 5752 5750 5748 5746 5745 5744 5745 5746 5746 5745 5745 5744 5745 5744 5745 5747 5748
5770 5768 5766 5762 5759 5758 5758 5757 5756 5755 5754 5753 5753 5753 5751 5750 5748 5747 5745 5743 5743 5743 5743 5744 5746 5750 5747 5747 5747 5745 5745 5744 5744 5743 5744 5745 5746 5744 5744 5746 5746 5746 5747
5772 5770 5765 5763 5761 5760 5758 5756 5754 5755 5755 5753 5752 5750 5749 5749 5749 5747 5745 5745 5746 5747 5748 5748 5749 5749 5749 5746 5745 5744 5744 5745 5745 5743 5743 5746 5747 5746 5746 5747 5747 5746 5745
5773 5771 5766 5764 5762 5760 5758 5758 5757 5754 5754 5752 5750 5751 5751 5751 5751 5749 5750 5751 5752 5752 5751 5752 5753 5754 5753 5752 5752 5749 5749 5749 5748 5749 5749 5749 5748 5749 5747 5745 5745 5743 5741
5773 5772 5769 5767 5763 5761 5761 5760 5758 5756 5756 5754 5752 5751 5750 5752 5754 5753 5752 5752 5752 5753 5752 5754 5757 5759 5758 5758 5758 5759 5757 5754 5752 5753 5753 5752 5749 5749 5748 5744 5744 5742 5742
5775 5772 5770 5768 5765 5763 5762 5761 5762 5759 5756 5755 5753 5753 5754 5753 5754 5754 5754 5753 5756 5758 5754 5755 5759 5762 5760 5761 5763 5765 5762 5761 5758 5754 5750 5751 5751 5752 5750 5748 5746 5745 5743
5778 5773 5771 5768 5766 5765 5762 5763 5760 5758 5757 5758 5756 5758 5758 5755 5754 5756 5758 5758 5758 5756 5753 5755 5760 5762 5762 5765 5767 5769 5768 5768 5766 5762 5757 5756 5756 5758 5756 5752 5748 5746 5746
5779 5775 5771 5768 5767 5766 5764 5763 5760 5761 5762 5757 5757 5758 5760 5760 5760 5759 5759 5762 5764 5757 5756 5758 5760 5761 5764 5769 5773 5770 5771 5771 5768 5764 5761 5761 5759 5757 5755 5751 5748 5748 5745
5781 5777 5773 5770 5768 5766 5765 5764 5761 5762 5761 5758 5760 5760 5760 5758 5760 5758 5760 5761 5763 5759 5757 5757 5759 5760 5765 5774 5775 5773 5770 5769 5767 5765 5760 5757 5751 5748 5748 5747 5743 5740 5739
5781 5778 5774 5771 5770 5767 5765 5764 5763 5764 5760 5761 5762 5764 5756 5759 5760 5760 5763 5762 5762 5759 5760 5756 5756 5765 5770 5773 5777 5777 5775 5773 5770 5766 5762 5756 5749 5746 5742 5737 5737 5736 5733
5779 5778 5776 5773 5772 5769 5767 5766 5766 5765 5761 5764 5765 5765 5761 5761 5760 5760 5760 5761 5762 5761 5760 5757 5762 5766 5767 5769 5774 5775 5771 5774 5773 5769 5763 5754 5750 5752 5746 5744 5735 5729 5727
5783 5781 5779 5776 5774 5771 5768 5768 5767 5765 5763 5763 5765 5769 5766 5762 5766 5763 5760 5757 5759 5760 5758 5759 5764 5768 5766 5764 5765 5767 5773 5777 5773 5767 5759 5756 5754 5749 5747 5744 5735 5727 5723
5784 5782 5781 5779 5778 5774 5771 5771 5770 5768 5766 5763 5765 5769 5767 5763 5764 5762 5758 5755 5754 5756 5758 5764 5766 5768 5767 5766 5766 5770 5775 5777 5773 5768 5759 5756 5751 5747 5752 5751 5739 5732 5726
5787 5786 5784 5782 5780 5779 5775 5774 5772 5773 5772 5768 5769 5770 5770 5769 5767 5766 5761 5755 5754 5757 5765 5767 5768 5768 5768 5770 5770 5770 5772 5773 5771 5766 5759 5755 5747 5746 5756 5745 5728 5726 5724
5790 5790 5789 5785 5782 5781 5779 5779 5777 5777 5777 5772 5773 5773 5771 5770 5769 5767 5765 5764 5765 5768 5771 5770 5771 5770 5770 5770 5770 5771 5771 5769 5767 5763 5759 5754 5747 5744 5741 5730 5727 5724 5722
5796 5794 5791 5788 5786 5785 5783 5784 5781 5781 5779 5779 5776 5777 5775 5773 5772 5773 5771 5770 5771 5775 5775 5775 5775 5771 5771 5772 5769 5768 5767 5767 5765 5762 5757 5753 5748 5741 5732 5722 5718 5721 5717
5801 5797 5795 5793 5790 5790 5787 5784 5783 5783 5782 5783 5784 5778 5777 5777 5774 5773 5773 5778 5778 5777 5774 5774 5772 5769 5766 5765 5763 5769 5769 5769 5765 5761 5757 5752 5742 5734 5723 5717 5715 5716 5710
5807 5802 5799 5797 5794 5795 5793 5787 5783 5784 5786 5789 5788 5786 5786 5784 5784 5782 5782 5783 5780 5776 5774 5770 5767 5764 5761 5768 5772 5769 5769 5767 5763 5760 5757 5747 5737 5724 5714 5708 5705 5702 5697
5808 5805 5803 5801 5797 5796 5796 5793 5789 5786 5788 5790 5792 5794 5793 5791 5788 5785 5783 5783 5779 5774 5772 5770 5765 5765 5767 5770 5771 5768 5766 5764 5760 5756 5747 5738 5727 5716 5704 5697 5692 5689 5686
5807 5803 5804 5802 5800 5797 5794 5792 5789 5787 5786 5789 5794 5796 5794 5790 5789 5788 5784 5780 5778 5776 5774 5770 5769 5770 5773 5775 5770 5767 5763 5760 5757 5753 5742 5732 5720 5705 5694 5686 5680 5679 5676
5811 5809 5806 5808 5806 5804 5801 5797 5796 5794 5792 5791 5794 5797 5796 5794 5793 5789 5786 5782 5782 5779 5778 5777 5775 5773 5775 5779 5770 5762 5752 5753 5756 5750 5739 5726 5712 5701 5686 5678 5672 5668 5666
5809 5809 5809 5810 5812 5811 5808 5802 5798 5798 5796 5793 5794 5797 5800 5799 5796 5792 5791 5789 5787 5786 5783 5782 5781 5776 5774 5778 5774 5764 5752 5745 5746 5742 5729 5717 5705 5691 5677 5670 5664 5660 5657
5815 5816 5816 5812 5812 5813 5812 5807 5801 5794 5790 5793 5794 5798 5800 5801 5798 5794 5794 5793 5791 5790 5788 5788 5788 5783 5778 5772 5770 5767 5761 5754 5739 5726 5719 5709 5699 5687 5677 5669 5665 5657 5653
5821 5818 5818 5818 5815 5815 5813 5811 5808 5801 5800 5799 5799 5800 5801 5802 5800 5800 5799 5799 5797 5795 5794 5792 5791 5787 5783 5775 5768 5762 5757 5750 5742 5728 5710 5701 5692 5681 5674 5669 5662 5655 5649
5827 5824 5820 5818 5819 5816 5815 5812 5809 5806 5801 5797 5797 5798 5800 5801 5803 5802 5803 5804 5801 5799 5797 5795 5793 5788 5783 5777 5770 5762 5754 5744 5737 5729 5712 5697 5682 5672 5667 5662 5655 5650 5644